Regional Weather Roundup
Issued by NWS Bismarck, ND

Home | Current Version | Previous Version | Text Only | Print | Product List | Glossary On
Versions: 1 2 3 4 5 6 7 8 9 10 11 12 13 14 15 16 17 18 19 20 21 22 23 24 25 26 27 28 29 30 31 32 33 34 35 36 37 38 39 40 41 42 43 44 45 46 47 48 49 50
000
ASUS43 KBIS 261510
RWRBIS

NWR BROADCAST TEXT
NATIONAL WEATHER SERVICE BISMARCK ND
1000 AM CDT WED JUL 26 2017

NOTE: "FAIR" INDICATES FEW OR NO CLOUDS BELOW 12,000 FEET WITH NO
SIGNIFICANT WEATHER AND/OR OBSTRUCTIONS TO VISIBILITY.


CITY           SKY/WX    TMP DP  RH WIND       PRES   REMARKS
WILLISTON      SUNNY     74  54  49 NE6       30.15S
MINOT          SUNNY     73  58  59 NW7       30.14R
MINOT AFB      SUNNY     71  58  62 N6        30.13S
BISMARCK       SUNNY     78  58  49 N6        30.12R
DICKINSON      SUNNY     75  55  49 E8        30.14S
GARRISON         N/A     75  58  55 VRB6      30.13S
HETTINGER ARPT SUNNY     78  49  35 NE6       30.16S
JAMESTOWN      SUNNY     74  58  57 NW12      30.09R
HAZEN          FAIR      75  57  53 VRB8      30.15S
LINTON         FAIR     N/A N/A N/A NW6       30.13S
MANDAN         FAIR      73  57  56 N13       30.13S
STANLEY        FAIR      70  57  64 CALM      30.19S
TIOGA          FAIR      70  57  64 CALM      30.18F
WATFORD CITY   FAIR      75  54  46 E7        30.14F
$$

CITY           SKY/WX    TMP DP  RH WIND       PRES   REMARKS
GRAND FORKS    SUNNY     74  63  68 N12       30.03R
GRAND FORKS AF SUNNY     73  62  68 N12       30.05R
DEVILS LAKE    SUNNY     69  60  73 NW15      30.11R
FARGO          SUNNY     74  62  66 N14       30.04R
CAVALIER       FAIR      70  63  78 N12       30.04S
GRAFTON        FAIR      72  63  73 NW13      30.06R
GWINNER        SUNNY     75  63  64 NE7       30.08R
LANGDON        FAIR      70  64  83 N14       30.09S
ROLLA            N/A     68  59  73 N13       30.13R
$$

CITY           SKY/WX    TMP DP  RH WIND       PRES   REMARKS
ABERDEEN       SUNNY     76  63  64 NE9       30.07R
MOBRIDGE       SUNNY     78  60  53 N5        30.08R
BUFFALO          N/A     77  57  50 W5        30.11R
RAPID CITY     CLOUDY    75  50  41 N8        30.18R
GLASGOW        SUNNY     75  49  39 SE13      30.13S
SIDNEY         SUNNY     72  54  53 VRB3      30.14S
WOLF POINT     SUNNY     74  50  42 E10       30.14S
GLENDIVE       SUNNY     73  49  42 VRB6      30.14S
MILES CITY     SUNNY     74  43  32 SE5       30.13R
BAKER          SUNNY     78  52  40 SW6       30.17R
$$

CITY           SKY/WX    TMP DP  RH WIND       PRES   REMARKS
BILLINGS       MOSUNNY   65  49  56 SW8       30.18R
GREAT FALLS    SUNNY     66  38  35 SW7       30.15S
REGINA         SUNNY     70  55  60 S6        30.16F
ESTEVAN        MOSUNNY   70  57  64 S2        30.17R
$$




USA.gov is the U.S. government's official web portal to all federal, state and local government web resources and services.